K5PCJ Weather Reports


time (UTC)temp
C
wind
direction
speed
KPH
gust
KPH
rain 1hr
cm
rain 24hr
cm
rain mn
cm
humidity
%
barometer
mb
20260505041556 22 338 1.6 6.4 0.00 0.00 0.00 81 1011.3
20260505041044 22 330 3.2 6.4 0.00 0.00 0.00 81 1011.5
20260505040544 22 50 1.6 6.4 0.00 0.00 0.00 81 1011.4
20260505040055 22 8 1.6 6.4 0.00 0.00 0.00 81 1011.3
20260505035545 22 341 3.2 8.0 0.00 0.00 0.00 81 1011.3
20260505035048 22 297 3.2 8.0 0.00 0.00 0.00 81 1011.3
20260505034558 22 356 1.6 4.8 0.00 0.00 0.00 82 1011.4
20260505034049 22 22 1.6 4.8 0.00 0.00 0.00 82 1011.6
20260505033546 22 31 0.0 4.8 0.00 0.00 0.00 82 1011.7
20260505033056 22 6 0.0 1.6 0.00 0.00 0.00 83 1011.7
20260505032544 22 0 0.0 3.2 0.00 0.00 0.00 82 1011.6
20260505032046 22 352 0.0 3.2 0.00 0.00 0.00 82 1011.7
20260505031603 22 34 0.0 1.6 0.00 0.00 0.00 82 1011.6
20260505031045 22 0 0.0 3.2 0.00 0.00 0.00 82 1011.6
20260505030545 22 0 0.0 3.2 0.00 0.00 0.00 81 1011.5
20260505030103 22 94 0.0 3.2 0.00 0.00 0.00 81 1011.4
20260505025546 22 15 0.0 3.2 0.00 0.00 0.00 81 1011.5
20260505025045 22 18 0.0 3.2 0.00 0.00 0.00 81 1011.5
20260505024603 22 0 0.0 1.6 0.00 0.00 0.00 81 1011.6
20260505024045 22 0 0.0 1.6 0.00 0.00 0.00 81 1011.5
20260505023545 22 45 0.0 3.2 0.00 0.00 0.00 81 1011.5
20260505023059 22 51 0.0 3.2 0.00 0.00 0.00 81 1011.6
20260505022545 22 53 0.0 3.2 0.00 0.00 0.00 81 1011.5
20260505022045 22 135 0.0 4.8 0.00 0.00 0.00 81 1011.5
20260505021559 22 0 0.0 4.8 0.00 0.00 0.00 81 1011.5
20260505021044 22 7 0.0 3.2 0.00 0.00 0.00 81 1011.5
20260505020542 22 0 0.0 3.2 0.00 0.00 0.00 81 1011.5
20260505020053 22 360 0.0 1.6 0.00 0.00 0.00 80 1011.4
20260505015550 22 356 0.0 4.8 0.00 0.00 0.00 80 1011.2
20260505015046 22 27 0.0 4.8 0.00 0.00 0.00 80 1011.1
20260505014608 22 40 0.0 3.2 0.00 0.00 0.00 80 1011.0
20260505014047 22 23 0.0 3.2 0.00 0.00 0.00 80 1010.9
20260505013543 22 18 0.0 3.2 0.00 0.00 0.00 79 1011.0
20260505013049 22 38 0.0 4.8 0.00 0.00 0.00 79 1011.0
20260505012543 22 14 0.0 4.8 0.00 0.00 0.00 78 1011.0
20260505012045 22 339 1.6 3.2 0.00 0.00 0.00 78 1011.1
20260505011556 22 0 1.6 3.2 0.00 0.00 0.00 78 1011.1
20260505011044 22 0 0.0 3.2 0.00 0.00 0.00 78 1011.0
20260505010540 22 25 0.0 3.2 0.00 0.00 0.00 77 1011.0
20260505010048 22 8 1.6 3.2 0.00 0.00 0.00 77 1011.1
20260505005544 23 28 0.0 3.2 0.00 0.00 0.00 76 1011.1
20260505005047 23 30 0.0 6.4 0.00 0.00 0.00 76 1010.9
20260505004547 23 44 0.0 6.4 0.00 0.00 0.00 75 1010.8
20260505004043 23 9 1.6 6.4 0.00 0.00 0.00 75 1010.8
20260505003543 23 338 1.6 6.4 0.00 0.00 0.00 75 1010.8
20260505003049 23 39 0.0 4.8 0.00 0.00 0.00 75 1010.9
20260505002540 23 349 1.6 6.4 0.00 0.00 0.00 75 1010.9
20260505002046 23 316 1.6 6.4 0.00 0.00 0.00 74 1011.0
20260505001545 23 357 1.6 4.8 0.00 0.00 0.00 75 1011.0
20260505001045 23 304 0.0 4.8 0.00 0.00 0.00 75 1011.1
20260505000540 23 356 1.6 6.4 0.00 0.00 0.00 74 1011.1
20260504235540 23 25 1.6 6.4 0.00 0.00 0.00 74 1011.1
20260504235040 23 355 1.6 6.4 0.00 0.00 0.00 74 1011.1
20260504234550 24 289 0.0 4.8 0.00 0.00 0.00 74 1011.1
20260504234043 24 18 1.6 4.8 0.00 0.00 0.00 73 1011.1
20260504233543 24 0 0.0 6.4 0.00 0.00 0.00 74 1011.1
20260504233105 24 46 0.0 6.4 0.00 0.00 0.00 73 1011.2
20260504232544 24 337 1.6 6.4 0.00 0.00 0.00 72 1011.2
20260504232044 24 345 0.0 6.4 0.00 0.00 0.00 72 1011.3
20260504231548 25 0 1.6 4.8 0.00 0.00 0.00 72 1011.5
20260504231041 25 359 0.0 4.8 0.00 0.00 0.00 71 1011.4
20260504230540 25 36 1.6 6.4 0.00 0.00 0.00 70 1011.5
20260504230050 25 34 1.6 6.4 0.00 0.00 0.00 70 1011.4
20260504225541 25 30 1.6 6.4 0.00 0.00 0.00 69 1011.4
20260504225042 25 356 1.6 4.8 0.00 0.00 0.00 69 1011.4
20260504224553 25 325 0.0 6.4 0.00 0.00 0.00 70 1011.6
20260504224044 25 326 1.6 6.4 0.00 0.00 0.00 70 1011.7
20260504223544 25 335 1.6 6.4 0.00 0.00 0.00 69 1011.7
20260504223110 25 45 1.6 6.4 0.00 0.00 0.00 68 1011.8
20260504222544 25 353 1.6 6.4 0.00 0.00 0.00 68 1011.9
20260504222043 26 0 1.6 4.8 0.00 0.00 0.00 68 1012.0
20260504221556 26 0 1.6 4.8 0.00 0.00 0.00 67 1011.9
20260504221046 26 6 1.6 4.8 0.00 0.00 0.00 66 1011.8
20260504220544 26 338 1.6 6.4 0.00 0.00 0.00 66 1011.9
20260504220057 26 335 3.2 6.4 0.00 0.00 0.00 65 1011.8
20260504215544 26 323 1.6 6.4 0.00 0.00 0.00 64 1012.0
20260504215045 27 359 1.6 12.9 0.00 0.00 0.00 64 1012.0
20260504214552 27 26 1.6 12.9 0.00 0.00 0.00 62 1012.0
20260504214048 27 331 3.2 6.4 0.00 0.00 0.00 63 1012.1
20260504213540 27 348 1.6 6.4 0.00 0.00 0.00 63 1012.0
20260504213105 27 51 3.2 6.4 0.00 0.00 0.00 62 1012.0
20260504212544 27 18 1.6 6.4 0.00 0.00 0.00 62 1012.2
20260504212040 28 23 1.6 4.8 0.00 0.00 0.00 62 1012.3
20260504211553 27 0 0.0 6.4 0.00 0.00 0.00 62 1012.4
20260504211044 28 0 1.6 6.4 0.00 0.00 0.00 60 1012.3
20260504210546 28 360 1.6 6.4 0.00 0.00 0.00 59 1012.3
20260504210058 28 73 1.6 6.4 0.00 0.00 0.00 58 1012.5
20260504205544 28 22 1.6 6.4 0.00 0.00 0.00 59 1012.6
20260504205047 28 0 1.6 4.8 0.00 0.00 0.00 59 1012.7
20260504204549 28 19 1.6 8.0 0.00 0.00 0.00 58 1012.7
20260504204043 28 345 1.6 8.0 0.00 0.00 0.00 60 1012.6
20260504203540 28 332 1.6 6.4 0.00 0.00 0.00 60 1012.8
20260504203105 27 1 1.6 4.8 0.00 0.00 0.00 61 1012.9
20260504202540 27 353 1.6 8.0 0.00 0.00 0.00 58 1013.0
20260504202043 27 30 1.6 8.0 0.00 0.00 0.00 59 1013.0
20260504201554 27 53 3.2 8.0 0.00 0.00 0.00 56 1013.1
20260504201044 28 327 1.6 6.4 0.00 0.00 0.00 57 1013.1
20260504200544 28 359 1.6 6.4 0.00 0.00 0.00 58 1013.2
20260504200056 28 360 1.6 6.4 0.00 0.00 0.00 57 1013.4
20260504195544 28 11 1.6 6.4 0.00 0.00 0.00 57 1013.4
20260504195044 28 5 1.6 6.4 0.00 0.00 0.00 56 1013.4
20260504194622 27 349 1.6 6.4 0.00 0.00 0.00 57 1013.6
20260504194551 27 349 1.6 6.4 0.00 0.00 0.00 57 1013.6
20260504194047 28 264 1.6 6.4 0.00 0.00 0.00 56 1013.7
20260504193547 28 339 1.6 6.4 0.00 0.00 0.00 56 1013.7
20260504193054 27 44 1.6 4.8 0.00 0.00 0.00 57 1013.7
20260504192543 27 340 1.6 4.8 0.00 0.00 0.00 59 1013.8
20260504192044 27 66 1.6 4.8 0.00 0.00 0.00 58 1013.8
20260504191554 27 359 1.6 6.4 0.00 0.00 0.00 57 1014.1
20260504191043 27 3 1.6 6.4 0.00 0.00 0.00 59 1014.1
20260504190543 27 355 1.6 6.4 0.00 0.00 0.00 58 1014.1
20260504190053 27 340 1.6 6.4 0.00 0.00 0.00 59 1014.3
20260504185544 27 103 1.6 4.8 0.00 0.00 0.00 59 1014.2
20260504185043 27 349 1.6 4.8 0.00 0.00 0.00 59 1014.3
20260504184545 27 358 1.6 4.8 0.00 0.00 0.00 59 1014.4
20260504184043 26 3 1.6 6.4 0.00 0.00 0.00 59 1014.4
20260504183542 27 19 1.6 6.4 0.00 0.00 0.00 56 1014.4
20260504183041 27 0 1.6 8.0 0.00 0.00 0.00 57 1014.5
20260504182546 27 0 1.6 8.0 0.00 0.00 0.00 56 1014.5
20260504182042 27 265 1.6 8.0 0.00 0.00 0.00 52 1014.5
20260504181549 28 299 1.6 8.0 0.00 0.00 0.00 54 1014.7
20260504181044 28 74 3.2 8.0 0.00 0.00 0.00 55 1014.7
20260504180544 27 9 3.2 12.9 0.00 0.00 0.00 52 1014.7
20260504180051 27 13 3.2 12.9 0.00 0.00 0.00 56 1014.9
20260504175545 27 15 3.2 9.7 0.00 0.00 0.00 55 1015.0
20260504175044 27 8 1.6 8.0 0.00 0.00 0.00 57 1015.1
20260504174549 27 12 1.6 8.0 0.00 0.00 0.00 58 1015.1
20260504174045 27 323 1.6 8.0 0.00 0.00 0.00 57 1015.2
20260504173544 27 352 1.6 6.4 0.00 0.00 0.00 58 1015.1
20260504173055 27 360 1.6 6.4 0.00 0.00 0.00 57 1015.3
20260504172544 27 348 1.6 6.4 0.00 0.00 0.00 57 1015.4
20260504172044 27 32 3.2 8.0 0.00 0.00 0.00 58 1015.5
20260504171555 27 323 1.6 8.0 0.00 0.00 0.00 58 1015.5
20260504171045 26 359 1.6 8.0 0.00 0.00 0.00 59 1015.5
20260504170545 26 350 3.2 8.0 0.00 0.00 0.00 57 1015.7
20260504151046 23 33 1.6 6.4 0.00 0.00 0.00 64 1016.4
20260504150544 23 336 1.6 8.0 0.00 0.00 0.00 66 1016.5
20260504141044 20 45 0.0 6.4 0.00 0.00 0.00 77 1016.2
20260504140545 19 155 0.0 6.4 0.00 0.00 0.00 80 1016.2
20260504130540 13 0 0.0 0.0 0.00 0.00 0.00 94 1016.6
20260504110545 12 0 0.0 0.0 0.00 0.00 0.00 92 1016.0
20260504100545 12 0 0.0 0.0 0.00 0.00 0.00 91 1016.2
20260504081550 13 0 0.0 0.0 0.00 0.00 0.00 89 1016.6
20260504081045 13 0 0.0 0.0 0.00 0.00 0.00 89 1016.8
20260504080544 13 0 0.0 0.0 0.00 0.00 0.00 89 1016.9
20260504050543 15 0 0.0 0.0 0.00 0.00 0.00 86 1018.4